Weather in Malgrat de Mar

Spain     41°38′46″N   2°44′08″E
temp.,
°C
wind,
m/s
gust,
m/s
humid.,
%
clouds,
%
prec.,
mm/h
press.,
hPa
HPBL,
m
17 october, sun
sun1723:00+13nw11902 0.0 101925
02:00+13nnw11920 0.0 101920
05:00+13n11922 0.0 101823
08:00+12n119311 0.0 101828
11:00+18e116939 0.0 1019505
14:00+20sse326390 0.0 1019955
17:00+19sse337012 0.0 1018559
20:00+14ssw11915 0.0 102054
18 october, mon
mon1823:00+14nnw1192100 0.0 102123
02:00+13nnw11947 0.0 102220
05:00+13n119353 0.0 102223
08:00+13nnw1191100 0.0 102329
11:00+18sse117226 0.0 1024424
14:00+20sse447124 0.0 1023635
17:00+20sse447051 0.0 1022593
20:00+16s119288 0.0 102452
19 october, tue
tue1923:00+15wsw1193100 0.0 102622
02:00+15wsw119410 0.0 102620
05:00+14w1193100 0.0 102617
08:00+14wnw1193100 0.0 102618
11:00+20ssw256975 0.0 1026573
14:00+23ssw665544 0.0 10241036
17:00+22ssw686832 0.0 1024751
20:00+18ssw499016 0.0 1024351
20 october, wed
wed2023:00+17sw499127 0.0 1024367
02:00+17ssw49890 0.0 1024476
05:00+18ssw4108619 0.0 1023588
08:00+19ssw5107596 0.1 1022894
11:00+21ssw686437 0.0 10221070
14:00+22ssw7860100 0.0 10211157
17:00+21ssw6867100 0.0 1019853
20:00+18ssw4981100 0.0 1019410
21 october, thu
thu2123:00+17sw22880 0.0 101978
02:00+15wnw11922 0.0 101923
05:00+15nnw229132 0.0 101831
08:00+14nnw229398 0.0 101827
11:00+19ese1171100 0.0 1018377
14:00+21sse326792 0.0 1016971
17:00+19sse338099 0.2 1015595
20:00+16ne1290100 1.2 1016166